Weather History for Rome, OR

Change the Weather History Date:

Friday, January 18, 2013

  Actual Average Record
Temperature  
Mean Temperature 10 °F 30 °F  
Max Temperature 25 °F 39 °F 60 °F (2015)
Min Temperature -5 °F 20 °F -13 °F (1984)
Degree Days  
Heating Degree Days 55 35  
Month to date heating degree days 943 650  
Since 1 July heating degree days 3300 3397  
Cooling Degree Days 0 0  
Month to date cooling degree days 0 0  
Year to date cooling degree days 0 0  
Moisture  
Dew Point 2 °F    
Average Humidity 73    
Maximum Humidity 91    
Minimum Humidity 55    
Precipitation  
Precipitation 0.00 in 0.02 in 1.13 in (1953)
Month to date precipitation 0.22 0.40  
Year to date precipitation 0.22 0.40  
Sea Level Pressure  
Sea Level Pressure 30.65 in    
Wind  
Wind Speed 3 mph (SE)    
Max Wind Speed 12 mph    
Max Gust Speed 12 mph    
T = Trace of Precipitation, MM = Missing Value Source: NWS Daily Summary

Daily Weather History Graph

Daily Weather History Graph

Search for Another Location

Airport:

Trip Planner

Search our weather history database for the weather conditions in past years. The results will help you decide how hot, cold, wet, or windy it might be!

Date:

Astronomy

Jan. 18, 2013 Rise Set
Actual Time 7:16 AM PST 4:47 PM PST
Civil Twilight 6:45 AM PST 5:18 PM PST
Nautical Twilight 6:11 AM PST 5:53 PM PST
Astronomical Twilight 5:37 AM PST 6:26 PM PST
Moon 10:46 AM PST (1/18) No Moon Set
Length of Visible Light 10h 32m
Length of Day
9h 30m
Waxing Crescent, 48% of the Moon is Illuminated
Jan 18
Waxing Crescent
Jan 18
First Quarter
Jan 26
Full
Feb 3
Last Quarter
Feb 9
New

Hourly Weather History & Observations

Time (PST) Temp. Windchill Dew Point Humidity Pressure Visibility Wind Dir Wind Speed Gust Speed Precip Events Conditions
12:52 AM -0.9 °F -12.7 °F -6.0 °F 79% 30.69 in - South 5.8 mph - N/A   Unknown
1:52 AM -0.0 °F -7.9 °F -4.0 °F 83% 30.69 in - SSW 3.5 mph - N/A   Unknown
2:52 AM 1.9 °F - -2.9 °F 80% 30.66 in - Calm Calm - N/A   Unknown
3:52 AM -2.0 °F -12.2 °F -6.0 °F 83% 30.68 in - SSE 4.6 mph - N/A   Unknown
4:52 AM -2.0 °F -10.1 °F -7.1 °F 79% 30.69 in - South 3.5 mph - N/A   Unknown
5:52 AM -0.9 °F - -5.1 °F 83% 30.68 in - Calm Calm - N/A   Unknown
6:52 AM -2.9 °F -11.2 °F -7.1 °F 82% 30.70 in - NNE 3.5 mph - N/A   Unknown
7:52 AM -2.9 °F -13.3 °F -7.1 °F 82% 30.72 in - South 4.6 mph - N/A   Unknown
8:52 AM 3.9 °F - 1.0 °F 88% 30.71 in - Calm Calm - N/A   Unknown
9:52 AM 12.0 °F - 7.0 °F 80% 30.69 in - Calm Calm - N/A   Unknown
10:52 AM 15.1 °F - 9.0 °F 77% 30.66 in - Calm Calm - N/A   Unknown
11:52 AM 21.0 °F - 10.9 °F 65% 30.62 in - Calm Calm - N/A   Unknown
12:52 PM 21.9 °F 17.2 °F 9.0 °F 58% 30.60 in - NE 3.5 mph - N/A   Unknown
1:52 PM 25.0 °F 19.3 °F 10.0 °F 53% 30.56 in - NNE 4.6 mph - N/A   Unknown
2:52 PM 24.1 °F 18.2 °F 10.9 °F 57% 30.56 in - NNE 4.6 mph - N/A   Unknown
3:52 PM 21.9 °F 11.0 °F 10.9 °F 63% 30.59 in - NNE 10.4 mph - N/A   Unknown
4:52 PM 19.0 °F 10.0 °F 10.9 °F 71% 30.59 in - SE 6.9 mph - N/A   Unknown
5:52 PM 10.9 °F 2.9 °F 5.0 °F 77% 30.62 in - SSW 4.6 mph - N/A   Unknown
6:52 PM 10.0 °F -1.9 °F 5.0 °F 80% 30.65 in - NE 8.1 mph - N/A   Unknown
7:52 PM 6.1 °F -4.3 °F 1.9 °F 83% 30.66 in - SSE 5.8 mph - N/A   Unknown
8:52 PM 5.0 °F - 1.0 °F 84% 30.65 in - Calm Calm - N/A   Unknown
9:52 PM 7.0 °F -3.3 °F 3.0 °F 84% 30.61 in - South 5.8 mph - N/A   Unknown
10:52 PM 6.1 °F - 1.0 °F 80% 30.61 in - Calm Calm - N/A   Unknown
11:52 PM 6.1 °F - 1.9 °F 83% 30.59 in - Calm Calm - N/A   Unknown